Regional Weather Roundup
Issued by NWS

Home | Current Version | Previous Version | Text Only | Print | Product List | Glossary Off
Versions: 1 2 3 4 5 6 7 8 9 10 11 12 13 14 15 16 17 18 19 20 21 22 23 24 25 26 27 28 29 30 31 32 33 34 35 36 37 38 39 40 41 42 43 44 45 46 47 48 49 50

000
ASUS43 KLSX 051907
RWRMO

WEATHER SUMMARY FOR MISSOURI
NATIONAL WEATHER SERVICE SPRINGFIELD MO
100 PM CST MON DEC 05 2016

NOTE: "FAIR" INDICATES FEW OR NO CLOUDS BELOW 12,000 FEET WITH NO
       SIGNIFICANT WEATHER AND/OR OBSTRUCTIONS TO VISIBILITY.
       CURRENT SKY AND/OR WEATHER CONDITIONS ARE NOT AVAILABLE FOR
       CHILLICOTHE AND FARMINGTON.

MOZ001>031-035>038-043-044-053-054-052000-
...NORTHERN AND WESTERN MISSOURI...

CITY           SKY/WX    TMP DP  RH WIND       PRES   REMARKS
KANSAS CTY INT MOSUNNY   48  35  60 S18G25    29.79F
KANSAS C DTWN  SUNNY     50  37  61 S12G20    29.81F
LEE`S SUMMIT   SUNNY     50  36  58 S14G20    29.82F
ST JOSEPH      SUNNY     51  36  56 S16       29.77F
CHILLICOTHE      N/A     49  36  61 S14       29.84F
KIRKSVILLE     PTSUNNY   37  36  96 SE14      29.88F WCI  28

$$
MOZ066>068-077>081-088>096-101>105-052000-
...SOUTHWEST MISSOURI...

CITY           SKY/WX    TMP DP  RH WIND       PRES   REMARKS
SPRINGFIELD    CLOUDY    43  36  76 SE13      29.86F
JOPLIN         MOSUNNY   48  38  68 SE10      29.84F
BRANSON        CLOUDY    41  36  81 E8        29.89F

$$
MOZ032>034-039>042-045>050-055>058-069>072-052000-
...CENTRAL MISSOURI...

CITY           SKY/WX    TMP DP  RH WIND       PRES   REMARKS
COLUMBIA       MOSUNNY   41  38  89 SE13      29.91F
JEFFERSON CITY MOSUNNY   42  37  82 E7        29.92F
ROLLA          MOSUNNY   45  39  79 SE8       29.89F
SEDALIA        CLOUDY    51  34  52 S17       29.88F
WHITEMAN AFB   MOSUNNY   49  38  64 S16       29.84F
WARRENSBURG    SUNNY     50  34  53 SE15G21   29.84F
OSAGE BEACH    CLOUDY    43  36  76 S9        29.91F

$$
MOZ051-052-059>065-052000-
...EAST CENTRAL MISSOURI...

CITY           SKY/WX    TMP DP  RH WIND       PRES   REMARKS
ST LOUIS INTL  PTSUNNY   45  35  68 SE9       29.97F
SPIRIT OF STL  CLOUDY    44  37  76 SE10      29.96F
ST CHARLES     MOSUNNY   43  38  82 E12       29.97F

$$
MOZ072>076-082>087-097>100-106>115-052000-
...SOUTH CENTRAL AND SOUTHEAST MISSOURI...

CITY           SKY/WX    TMP DP  RH WIND       PRES   REMARKS
CAPE GIRARDEAU CLOUDY    43  35  73 VRB7      29.98F
FARMINGTON     SUNNY     47  35  63 SE8       29.94F
POPLAR BLUFF   CLOUDY    42  37  82 E9        29.97F
WEST PLAINS    SUNNY     45  33  63 SE9       29.91F

$$



USA.gov is the U.S. government's official web portal to all federal, state and local government web resources and services.